x

8413320 - Bar Harbor, Me (atgm1) Weather Station

9:18 - Sun 28th May 2017 All times are EDT. -4 hours from GMT.

  • Wind
    2mph, 2mph gusts
  • Sea Temp 49°f
  • Luft Temp 48°f
  • Sea Pressure 1017.1mb
  • 8413320 - Bar Harbor, Me
  • 8413320 - Bar Harbor, Me

More Historic Weather Station data

Upgrade to MSW Pro to gain access to the past 30 days of data for over 8000 Wavebouys and Weather Stations around the globe.

Join Pro

Comparision Forecast

View Surf forecast
   
So 05/28 9:18 2 2 mph 1017.1mb 49f 48f
9:12 2 2 mph 1017.2mb 49f 48f
9:06 1 2 mph 1017.1mb 49f 48f
9:00 1 3 mph 1017.2mb 49f 49f
8:48 2 6 mph 1017mb 49f 49f
8:42 3 6 mph 1016.9mb 49f 49f
8:36 3 6 mph 1016.8mb 49f 49f
8:30 3 6 mph 1016.7mb 49f 49f
8:24 3 7 mph 1016.5mb 49f 49f
8:18 6 7 mph 1016.5mb 49f 49f
8:12 6 9 mph 1016.5mb 49f 49f
8:06 6 8 mph 1016.5mb 49f 50f
8:00 5 7 mph 1016.5mb 49f 50f
7:54 6 8 mph 1016.5mb 49f 50f
7:48 3 7 mph 1016.5mb 49f 50f
7:42 5 7 mph 1016.4mb 49f 51f
7:36 6 7 mph 1016.4mb 49f 51f
7:30 6 8 mph 1016.2mb 49f 51f
7:24 5 7 mph 1016.1mb 49f 52f
7:18 3 7 mph 1016.1mb 49f 53f
7:12 3 6 mph 1016.1mb 49f 54f
7:06 5 7 mph 1016.1mb 49f 54f
7:00 5 7 mph 1015.9mb 49f 55f
6:48 1 5 mph 1015.7mb 49f 55f
6:42 3 6 mph 1015.7mb 50f 55f
6:36 3 6 mph 1015.6mb 50f 54f
6:30 3 7 mph 1015.6mb 50f 53f
6:24 3 6 mph 1015.6mb 50f 53f
6:18 5 8 mph 1015.6mb 50f 53f
6:12 6 9 mph 1015.6mb 50f 52f
6:06 7 9 mph 1015.5mb 50f 53f
6:00 7 9 mph 1015.5mb 50f 53f
5:54 7 9 mph 1015.5mb 50f 53f
5:48 3 7 mph 1015.7mb 50f 54f
5:42 6 9 mph 1015.9mb 49f 54f
5:36 1 7 mph 1015.9mb 49f 56f
5:30 2 5 mph 1016mb 49f 55f
5:24 3 5 mph 1015.9mb 49f 56f
5:18 2 5 mph 1015.9mb 49f 56f
5:12 2 7 mph 1015.8mb 49f 56f
5:06 2 8 mph 1015.8mb 50f 56f
5:00 3 8 mph 1015.7mb 50f 55f
4:54 7 8 mph 1015.6mb 50f 54f
4:48 7 10 mph 1015.5mb 50f 53f
4:42 8 11 mph 1015.5mb 50f 53f
4:36 6 8 mph 1015.6mb 49f 53f
4:30 2 9 mph 1015.6mb 50f 55f
4:24 7 10 mph 1015.7mb 50f 54f
4:18 8 11 mph 1015.7mb 50f 53f
4:12 8 10 mph 1015.6mb 50f 53f
4:06 8 11 mph 1015.6mb 50f 53f
4:00 9 11 mph 1015.5mb 49f 52f
3:54 8 13 mph 1015.5mb 50f 51f
3:48 10 13 mph 1015.4mb 50f 51f
3:42 9 13 mph 1015.4mb 49f 51f
3:36 11 15 mph 1015.3mb 49f 51f
3:30 11 16 mph 1015.3mb 49f 51f
3:24 14 17 mph 1015.3mb 49f 49f
3:18 13 17 mph 1015.3mb 49f 50f
3:12 14 17 mph 1015.3mb 49f 49f
3:06 14 18 mph 1015.3mb 49f 49f
3:00 14 18 mph 1015.3mb 49f 49f
2:54 14 21 mph 1015.3mb 49f 49f
2:48 15 20 mph 1015.2mb 49f 48f
2:42 15 20 mph 1015mb 49f 48f
2:36 15 20 mph 1015mb 49f 48f
2:30 15 20 mph 1014.9mb 49f 48f
2:24 15 20 mph 1014.9mb 49f 48f
2:18 15 20 mph 1015mb 49f 47f
2:12 16 22 mph 1015mb 49f 47f
2:06 15 20 mph 1015mb 49f 47f
2:00 16 20 mph 1014.9mb 49f 47f
1:54 16 20 mph 1014.9mb 49f 47f
1:48 15 20 mph 1014.9mb 49f 47f
1:42 15 21 mph 1014.8mb 49f 47f
1:36 17 22 mph 1014.9mb 49f 47f
1:30 17 21 mph 1014.9mb 49f 47f
1:24 15 20 mph 1015mb 49f 47f
1:18 15 20 mph 1015.1mb 48f 47f
1:12 15 20 mph 1015.1mb 48f 47f
1:06 14 18 mph 1015.1mb 48f 48f
1:00 15 18 mph 1015.1mb 48f 47f
12:54 14 17 mph 1015.1mb 48f 47f
12:48 13 18 mph 1015.2mb 48f 48f
12:42 15 18 mph 1015mb 48f 47f
12:36 15 17 mph 1014.8mb 48f 48f
12:30 14 16 mph 1014.9mb 48f 48f
12:24 14 18 mph 1014.9mb 47f 48f
12:18 14 17 mph 1014.9mb 47f 48f
12:12 14 18 mph 1014.9mb 47f 48f
12:06 13 17 mph 1014.9mb 47f 48f
12:00 13 17 mph 1015mb 47f 49f
11:54 14 17 mph 1015mb 47f 48f
11:48 13 17 mph 1015mb 47f 49f
11:42 13 16 mph 1015.2mb 47f 48f
11:36 11 15 mph 1015.3mb 47f 48f
11:30 11 15 mph 1015.3mb 47f 49f
11:24 11 14 mph 1015.3mb 47f 49f
11:18 13 15 mph 1015.2mb 47f 48f
11:12 13 14 mph 1015.2mb 48f 48f
11:06 10 14 mph 1015.3mb 48f 49f
11:00 11 14 mph 1015.2mb 48f 48f
10:54 11 14 mph 1015.2mb 48f 49f
10:48 8 11 mph 1015.4mb 48f 51f
10:42 8 11 mph 1015.3mb 48f 51f
10:36 9 11 mph 1015.4mb 47f 51f
10:30 8 11 mph 1015.4mb 47f 51f
10:24 8 11 mph 1015.5mb 47f 51f
10:18 8 11 mph 1015.5mb 47f 50f
10:12 8 11 mph 1015.6mb 48f 50f
10:06 8 13 mph 1015.6mb 48f 49f
10:00 9 13 mph 1015.6mb 48f 49f
9:54 8 10 mph 1015.6mb 48f 50f
9:48 8 10 mph 1015.8mb 48f 50f
9:42 8 10 mph 1015.8mb 48f 50f
9:36 6 8 mph 1015.7mb 48f 50f
9:30 5 6 mph 1015.7mb 48f 51f
9:24 5 6 mph 1015.8mb 48f 50f
9:18 5 6 mph 1015.8mb 48f 50f
9:12 6 7 mph 1015.7mb 48f 49f
9:06 3 5 mph 1015.7mb 49f 50f
9:00 1 3 mph 1015.6mb 49f 50f
8:54 2 3 mph 1015.4mb 49f 50f
8:48 3 5 mph 1015.3mb 49f 49f
8:42 3 6 mph 1015.1mb 48f 49f
8:36 3 6 mph 1015.1mb 49f 49f
8:30 5 6 mph 1014.9mb 48f 49f
8:24 3 6 mph 1014.9mb 48f 48f
8:18 3 7 mph 1015mb 48f 48f
8:12 6 6 mph 1014.7mb 49f 47f
8:06 6 6 mph 1014.7mb 48f 48f
8:00 5 6 mph 1014.9mb 48f 47f
7:54 2 5 mph 1015mb 48f 48f
7:48 5 6 mph 1015mb 48f 48f
7:42 5 6 mph 1014.8mb 48f 48f
7:36 3 5 mph 1014.8mb 48f 48f
7:30 2 3 mph 1014.8mb 48f 47f
7:24 3 5 mph 1014.7mb 48f 47f
7:18  -  1 mph 1014.5mb 48f 47f
7:12  -  2 mph 1014.3mb 48f 47f
7:06 2 2 mph 1014.2mb 48f 47f
7:00 2 2 mph 1014.1mb 48f 47f
6:54 2 3 mph 1014mb 48f 47f
6:48 2 2 mph 1014mb 48f 47f
6:42 2 2 mph 1014mb 48f 46f
6:36  -  1 mph 1013.9mb 49f 47f
6:30  -  1 mph 1014mb 48f 46f
6:24  -  2 mph 1014mb 49f 46f
6:18 2 3 mph 1014.1mb 49f 46f
6:12 2 2 mph 1014.1mb 48f 46f
6:06 2 2 mph 1014mb 49f 46f
6:00 1 2 mph 1014.1mb 48f 46f
5:54  -  1 mph 1014mb 49f 45f
5:48 1 3 mph 1013.9mb 48f 45f
5:42 2 3 mph 1014mb 48f 45f
5:36 3 5 mph 1014mb 48f 45f
5:30 2 3 mph 1013.8mb 48f 45f
5:24 2 3 mph 1013.7mb 48f 45f
5:18 2 3 mph 1013.7mb 48f 45f
5:12 2 3 mph 1013.8mb 48f 45f
5:06 2 3 mph 1013.7mb 48f 45f
5:00 2 5 mph 1013.6mb 48f 45f
4:54 3 5 mph 1013.5mb 49f 45f
4:48 3 5 mph 1013.3mb 48f 45f
4:42 2 3 mph 1013.2mb 48f 45f
4:36 2 3 mph 1013.2mb 49f 46f
4:30 3 3 mph 1013.2mb 48f 46f
4:24 2 3 mph 1013.2mb 48f 46f
4:18 2 2 mph 1013.1mb 48f 46f
4:12 2 3 mph 1013.1mb 48f 46f
4:06 2 5 mph 1013mb 48f 46f
4:00 3 5 mph 1013.1mb 48f 46f
3:54 2 2 mph 1013mb 48f 46f
3:48  -  1 mph 1012.9mb 48f 46f
3:42  -  3 mph 1012.8mb 48f 46f
3:36 2 2 mph 1012.8mb 48f 46f
3:30 2 3 mph 1012.9mb 48f 46f
3:24 2 2 mph 1012.9mb 48f 47f
3:18 2 3 mph 1012.9mb 48f 46f
3:12 2 3 mph 1013mb 48f 46f
3:06 2 3 mph 1013mb 48f 47f
3:00 3 5 mph 1013.1mb 48f 47f
2:54 1 3 mph 1013.1mb 48f 47f
2:48 3 5 mph 1013.1mb 48f 47f
2:42  -  3 mph 1013mb 48f 47f
2:36 3 5 mph 1013mb 48f 47f
2:30 2 5 mph 1013.1mb 48f 47f
2:24 2 5 mph 1013.1mb 48f 47f
2:18 1 3 mph 1013.2mb 48f 47f
2:12 2 5 mph 1013.4mb 48f 47f
2:06 3 7 mph 1013.5mb 48f 47f
2:00 5 8 mph 1013.5mb 48f 47f
1:54 6 10 mph 1013.5mb 48f 47f
1:48 5 8 mph 1013.6mb 48f 47f
1:42 5 8 mph 1013.6mb 49f 47f
1:36 6 9 mph 1013.6mb 49f 47f
1:30 5 7 mph 1013.7mb 49f 47f
1:24 5 8 mph 1013.7mb 49f 47f
1:18 6 10 mph 1013.7mb 49f 47f
1:12 6 10 mph 1013.7mb 49f 47f
1:06 7 8 mph 1013.7mb 49f 47f
1:00 6 9 mph 1013.7mb 49f 47f
12:54 6 9 mph 1013.7mb 49f 46f
12:48 6 9 mph 1013.8mb 49f 46f
12:42 6 8 mph 1013.7mb 49f 46f
12:36 3 7 mph 1013.7mb 48f 46f
12:30 3 6 mph 1013.7mb 49f 46f
12:24 3 6 mph 1013.8mb 48f 46f
12:18 3 5 mph 1013.8mb 49f 46f
12:12 3 5 mph 1013.8mb 48f 46f
12:06 2 5 mph 1013.7mb 48f 46f
12:00 2 5 mph 1013.7mb 48f 46f
Sa 05/27 11:54 1 3 mph 1013.8mb 48f 46f
11:48 2 3 mph 1013.8mb 47f 46f
11:42 2 3 mph 1013.8mb 47f 46f
11:36 2 5 mph 1013.8mb 47f 46f
11:30 3 5 mph 1013.7mb 47f 46f
11:24 2 3 mph 1013.6mb 47f 46f
11:18 2 2 mph 1013.6mb 47f 46f
11:12 1 2 mph 1013.6mb 47f 47f
11:06 1 2 mph 1013.5mb 47f 47f
11:00 2 3 mph 1013.4mb 47f 47f
10:54 2 3 mph 1013.3mb 47f 47f
10:48 2 5 mph 1013.3mb 48f 47f
10:42 2 3 mph 1013.3mb 48f 47f
10:36 2 5 mph 1013.2mb 48f 47f
10:30 3 5 mph 1013.3mb 48f 47f
10:24 3 6 mph 1013.2mb 48f 47f
10:18 2 5 mph 1013.2mb 48f 47f
10:12 3 6 mph 1013.1mb 48f 47f
10:06 3 6 mph 1013.1mb 48f 47f
10:00 2 5 mph 1013.1mb 48f 48f
9:54 2 5 mph 1013mb 48f 48f
9:48 3 5 mph 1013mb 48f 48f
9:42 1 3 mph 1013.1mb 48f 48f
9:36 1 6 mph 1013.1mb 48f 48f
9:30 3 6 mph 1013.1mb 48f 48f
9:24 5 7 mph 1013.1mb 48f 48f
9:18 2 7 mph 1013.1mb 49f 48f
9:12 5 8 mph 1013.1mb 49f 48f
9:06 5 7 mph 1013mb 49f 48f
9:00 5 10 mph 1012.9mb 49f 48f
8:54 2 8 mph 1012.9mb 49f 48f
8:48 5 6 mph 1012.8mb 49f 48f
8:42 6 10 mph 1012.6mb 49f 48f
8:36 6 8 mph 1012.5mb 49f 48f
8:30 5 9 mph 1012.5mb 49f 48f
8:24 7 11 mph 1012.4mb 49f 48f
8:18 6 9 mph 1012.4mb 49f 49f
8:12 6 9 mph 1012.4mb 49f 49f
8:06 8 11 mph 1012.3mb 49f 49f
8:00 6 10 mph 1012.3mb 49f 50f
7:54 6 9 mph 1012.2mb 49f 50f
7:48 8 10 mph 1012.1mb 49f 50f
7:42 6 8 mph 1012mb 49f 51f
7:36 6 9 mph 1011.9mb 49f 51f
7:30 7 10 mph 1011.9mb 49f 50f
7:24 7 9 mph 1011.8mb 49f 51f
7:18 6 8 mph 1011.9mb 49f 51f
7:12 5 7 mph 1011.8mb 49f 51f
7:06 5 8 mph 1011.7mb 49f 51f
7:00 6 8 mph 1011.7mb 49f 52f
6:54 5 8 mph 1011.6mb 49f 52f
6:48 6 9 mph 1011.6mb 49f 52f
6:42 6 10 mph 1011.5mb 49f 52f
6:36 7 10 mph 1011.3mb 49f 52f
6:30 6 10 mph 1011.2mb 50f 52f
6:24 10 13 mph 1011.2mb 50f 51f
6:18 7 9 mph 1011.2mb 50f 53f
6:12 6 9 mph 1011.1mb 50f 53f
6:06 7 11 mph 1011.1mb 49f 53f
6:00 6 10 mph 1011mb 49f 53f
5:54 7 13 mph 1010.9mb 49f 53f
5:48 3 5 mph 1010.8mb 49f 55f
5:42 2 3 mph 1010.8mb 49f 55f
5:36 3 5 mph 1010.8mb 49f 55f
5:30 5 7 mph 1010.8mb 49f 55f
5:24 6 9 mph 1010.8mb 49f 54f
5:18 9 10 mph 1010.8mb 49f 54f
5:12 9 11 mph 1010.7mb 49f 53f
5:06 6 7 mph 1010.7mb 49f 54f
5:00 6 6 mph 1010.6mb 49f 54f
4:54 5 8 mph 1010.6mb 49f 54f
4:48 6 7 mph 1010.6mb 49f 53f
4:42 6 7 mph 1010.6mb 49f 54f
4:36 7 8 mph 1010.5mb 49f 53f
4:30 7 8 mph 1010.6mb 49f 53f
4:24 7 8 mph 1010.5mb 49f 53f
4:18 5 9 mph 1010.5mb 49f 53f
4:12 8 9 mph 1010.5mb 49f 53f
4:06 7 8 mph 1010.5mb 49f 53f
4:00 7 9 mph 1010.5mb 49f 53f
3:54 6 8 mph 1010.5mb 49f 53f
3:48 5 7 mph 1010.5mb 49f 53f
3:42 3 5 mph 1010.4mb 49f 53f
3:36 5 6 mph 1010.5mb 49f 52f
3:30 5 6 mph 1010.4mb 48f 52f
3:24 6 6 mph 1010.5mb 49f 52f
3:18 6 6 mph 1010.4mb 49f 52f
3:12 5 6 mph 1010.4mb 49f 52f
3:06 3 6 mph 1010.3mb 49f 52f
3:00 3 5 mph 1010.4mb 49f 52f
2:54 1 3 mph 1010.4mb 49f 52f
2:48 3 6 mph 1010.4mb 49f 51f
2:42 6 8 mph 1010.4mb 48f 51f
2:36 7 9 mph 1010.4mb 48f 52f
2:30 7 9 mph 1010.4mb 48f 52f
2:24 8 9 mph 1010.4mb 49f 51f
2:18 8 10 mph 1010.3mb 49f 51f
2:12 9 13 mph 1010.3mb 49f 51f
2:06 11 14 mph 1010.3mb 49f 51f
2:00 10 13 mph 1010.4mb 49f 51f
1:54 7 8 mph 1010.4mb 49f 51f
1:48 7 10 mph 1010.4mb 48f 51f
1:42 8 11 mph 1010.3mb 49f 51f
1:36 8 11 mph 1010.3mb 48f 51f
1:30 9 11 mph 1010.3mb 48f 51f
1:24 8 10 mph 1010.2mb 48f 51f
1:18 8 10 mph 1010.2mb 48f 50f
1:12 9 11 mph 1010.1mb 48f 50f
1:06 9 11 mph 1010mb 48f 50f
1:00 8 11 mph 1010mb 48f 50f
12:54 9 14 mph 1010mb 48f 50f
12:48 10 13 mph 1009.9mb 48f 50f
12:42 11 14 mph 1009.8mb 48f 50f
12:36 9 13 mph 1009.8mb 48f 50f
12:30 7 10 mph 1009.7mb 48f 50f
12:24 8 10 mph 1009.7mb 48f 50f
12:18 8 10 mph 1009.6mb 48f 49f
12:12 9 13 mph 1009.6mb 48f 49f
12:06 13 14 mph 1009.6mb 48f 49f
12:00 11 14 mph 1009.5mb 48f 50f
11:54 8 14 mph 1009.5mb 48f 50f
11:48 7 10 mph 1009.5mb 48f 50f
11:42 6 11 mph 1009.5mb 48f 50f
11:36 7 16 mph 1009.5mb 48f 50f
11:30 11 15 mph 1009.4mb 48f 50f
11:24 10 14 mph 1009.4mb 48f 49f
11:18 10 16 mph 1009.4mb 48f 50f
11:12 14 18 mph 1009.4mb 48f 50f
11:06 9 15 mph 1009.4mb 48f 50f
11:00 6 8 mph 1009.4mb 48f 49f
10:54 5 9 mph 1009.4mb 48f 49f
10:48 8 14 mph 1009.3mb 48f 49f
10:42 11 17 mph 1009.2mb 49f 49f
10:36 14 17 mph 1009.1mb 48f 49f
10:30 13 16 mph 1009.1mb 48f 49f
10:24 10 14 mph 1009.1mb 48f 48f
10:18 13 15 mph 1009.1mb 48f 48f
10:12 14 18 mph 1009mb 48f 48f
10:06 9 14 mph 1009mb 49f 48f
10:00 9 11 mph 1009mb 48f 48f
9:54 11 14 mph 1009mb 49f 47f
9:48 14 16 mph 1009mb 49f 47f
9:42 14 16 mph 1009.1mb 48f 48f
9:36 10 13 mph 1009mb 48f 48f
9:30 11 14 mph 1008.9mb 49f 48f
9:24 14 15 mph 1008.9mb 49f 48f
9:18 13 16 mph 1008.9mb 49f 48f
9:12 13 17 mph 1008.8mb 49f 48f
9:06 14 20 mph 1008.8mb 49f 48f
9:00 16 20 mph 1008.6mb 49f 48f
8:54 14 17 mph 1008.7mb 49f 48f
8:48 14 16 mph 1008.5mb 49f 48f
8:42 13 17 mph 1008.4mb 49f 48f
8:36 10 16 mph 1008.4mb 49f 48f
8:30 14 16 mph 1008.3mb 49f 47f
8:24 14 17 mph 1008.2mb 49f 48f
8:18 15 18 mph 1008.2mb 49f 48f
8:12 14 18 mph 1008.2mb 49f 48f
8:06 11 17 mph 1008mb 49f 48f
8:00 13 18 mph 1008mb 49f 48f
7:54 13 18 mph 1008mb 49f 48f
7:48 8 16 mph 1007.9mb 49f 48f
7:42 11 15 mph 1007.7mb 48f 48f
7:36 10 17 mph 1007.6mb 49f 48f
7:30 14 17 mph 1007.5mb 48f 48f
7:24 8 15 mph 1007.6mb 49f 48f
7:18 8 13 mph 1007.5mb 49f 47f
7:12 6 11 mph 1007.5mb 49f 48f
7:06 7 11 mph 1007.4mb 49f 47f
7:00 8 11 mph 1007.4mb 49f 47f
6:54 10 14 mph 1007.4mb 49f 47f
6:48 9 14 mph 1007.4mb 49f 47f
6:42 8 13 mph 1007.3mb 49f 47f
6:36 8 13 mph 1007.3mb 49f 47f
6:30 7 14 mph 1007.2mb 49f 47f
6:24 13 17 mph 1007.1mb 49f 47f
6:18 5 9 mph 1007.2mb 49f 47f
6:12 7 14 mph 1007.1mb 49f 47f
6:06 6 11 mph 1007mb 49f 47f
6:00 8 14 mph 1006.9mb 49f 47f
5:54 7 13 mph 1006.9mb 49f 47f
5:48 6 11 mph 1006.7mb 49f 47f
5:42 8 11 mph 1006.6mb 49f 47f
5:36 7 11 mph 1006.6mb 49f 47f
5:30 7 13 mph 1006.5mb 49f 47f
5:24 7 14 mph 1006.4mb 49f 47f
5:18 7 14 mph 1006.3mb 49f 47f
5:12 7 13 mph 1006.2mb 49f 47f
5:06 7 14 mph 1006.2mb 49f 47f
5:00 6 10 mph 1006.1mb 49f 47f
4:54 9 13 mph 1006mb 49f 47f
4:48 5 15 mph 1006mb 48f 47f
4:42 7 14 mph 1005.9mb 48f 47f
4:36 9 14 mph 1005.9mb 48f 47f
4:30 5 10 mph 1005.9mb 48f 47f
4:24 6 13 mph 1005.9mb 48f 47f
4:18 7 9 mph 1005.7mb 48f 47f
4:12 5 8 mph 1005.7mb 48f 47f
4:06 6 11 mph 1005.5mb 48f 47f
4:00 6 10 mph 1005.5mb 48f 47f
3:54 7 11 mph 1005.4mb 48f 47f
3:48 3 10 mph 1005.3mb 48f 47f
3:42 6 13 mph 1005.2mb 48f 47f
3:36 5 14 mph 1005.1mb 48f 47f
3:30 10 14 mph 1005.1mb 48f 47f
3:24 5 13 mph 1005.1mb 48f 47f
3:18 7 13 mph 1005.1mb 48f 47f
3:12 7 10 mph 1005.1mb 48f 47f
3:06 7 11 mph 1005mb 48f 47f
3:00 8 13 mph 1004.8mb 48f 47f
2:54 8 13 mph 1004.7mb 48f 47f
2:48 9 14 mph - - -
2:42 7 14 mph - - -
2:36 8 13 mph - - -
2:30 5 10 mph 1004.8mb 48f 48f
2:24 6 9 mph 1004.7mb 48f 48f
2:18 7 11 mph 1004.6mb 48f 48f
2:12 7 11 mph 1004.5mb 48f 48f
2:06 6 10 mph 1004.5mb 48f 48f
2:00 7 11 mph 1004.4mb 48f 48f
1:54 7 11 mph 1004.4mb 48f 48f
1:48 6 10 mph 1004.4mb 48f 48f
1:42 7 9 mph 1004.3mb 48f 48f
1:36 6 10 mph 1004.3mb 48f 48f
1:30 8 10 mph 1004.3mb 48f 48f
1:24 7 10 mph 1004.2mb 48f 48f
1:18 9 14 mph 1004.1mb 48f 48f
1:12 7 13 mph 1004.1mb 48f 48f
1:06 10 14 mph 1004.1mb 48f 48f
1:00 8 11 mph 1004.1mb 48f 49f
12:54 8 10 mph 1004.1mb 48f 49f
12:48 8 10 mph 1004mb 48f 49f
12:42 6 9 mph 1003.9mb 47f 49f
12:36 6 9 mph 1003.9mb 48f 49f
12:30 6 9 mph 1003.8mb 48f 49f
12:24 5 10 mph 1003.7mb 48f 49f
12:18 7 10 mph 1003.8mb 48f 49f
12:12 8 11 mph 1003.7mb 48f 49f
12:06 6 13 mph 1003.6mb 48f 49f
12:00 6 8 mph 1003.5mb 48f 49f
Fr 05/26 11:54 3 10 mph 1003.4mb 48f 49f
11:48 5 15 mph 1003.4mb 48f 49f
11:42 7 14 mph 1003.3mb 48f 49f
11:36 7 11 mph 1003.3mb 48f 49f
11:30 7 14 mph 1003.3mb 47f 49f
11:24 8 14 mph 1003.2mb 47f 49f
11:18 8 11 mph 1003.2mb 47f 49f
11:12 7 13 mph 1003.2mb 47f 49f
11:06 6 13 mph 1003.1mb 47f 49f
11:00 7 13 mph 1003mb 47f 49f
10:54 7 11 mph 1003mb 47f 49f
10:48 7 10 mph 1003mb 47f 49f
10:42 5 13 mph 1002.9mb 47f 49f
10:36 7 13 mph 1002.8mb 47f 49f
10:30 7 14 mph 1002.8mb 47f 49f
10:24 8 15 mph 1002.8mb 47f 49f
10:18 6 14 mph 1002.9mb 48f 49f
10:12 8 15 mph 1002.9mb 48f 49f
10:06 8 13 mph 1002.9mb 48f 49f
10:00 8 13 mph 1002.9mb 48f 49f
9:54 9 14 mph 1002.9mb 48f 49f
9:48 8 11 mph 1002.8mb 48f 49f
9:42 9 13 mph 1002.8mb 48f 49f
9:36 6 14 mph 1002.7mb 48f 49f
9:30 8 14 mph 1002.6mb 47f 49f
9:24 7 13 mph 1002.5mb 47f 49f
9:18 7 11 mph 1002.4mb 47f 49f
9:12 7 11 mph 1002.3mb 47f 49f
9:06 7 14 mph 1002.3mb 48f 50f
9:00 8 14 mph 1002.2mb 48f 50f
8:54 9 15 mph 1002.1mb 47f 50f
8:48 7 14 mph 1002mb 48f 50f
8:42 6 13 mph 1001.9mb 48f 50f
8:36 2 9 mph 1001.9mb 48f 50f
8:30 6 11 mph 1001.7mb 48f 50f
8:24 6 14 mph 1001.6mb 48f 50f
8:18 6 10 mph 1001.5mb 48f 50f
8:12 5 13 mph 1001.5mb 48f 50f
8:06 5 10 mph 1001.4mb 48f 50f
8:00 7 14 mph 1001.3mb 48f 50f
7:54 8 11 mph 1001.2mb 48f 50f
7:48 6 11 mph 1001.2mb 48f 51f
7:42 3 9 mph 1001.1mb 49f 51f
7:36 6 10 mph 1001mb 49f 51f
7:30 7 13 mph 1000.9mb 49f 51f
7:24 9 15 mph 1000.8mb 49f 51f
7:18 7 14 mph 1000.7mb 49f 50f
7:12 10 14 mph 1000.7mb 49f 50f
7:06 6 13 mph 1000.6mb 49f 50f
7:00 6 11 mph 1000.5mb 49f 50f
6:54 7 14 mph 1000.4mb 49f 51f
6:48 7 13 mph 1000.3mb 49f 51f
6:42 8 10 mph 1000.2mb 49f 51f
6:36 9 15 mph 1000.1mb 49f 51f
6:30 11 18 mph 1000mb 49f 51f
6:24 11 17 mph 999.9mb 49f 51f
6:18 10 14 mph 999.9mb 49f 51f
6:12 9 11 mph 999.8mb 49f 51f
6:06 10 14 mph 999.7mb 49f 51f
6:00 9 13 mph 999.7mb 49f 51f
5:54 7 11 mph 999.7mb 49f 51f
5:48 9 13 mph 999.6mb 49f 51f
5:42 9 13 mph 999.6mb 49f 51f
5:36 6 10 mph 999.5mb 49f 51f
5:30 7 11 mph 999.5mb 49f 51f
5:24 8 9 mph 999.5mb 49f 51f
5:18 7 9 mph 999.5mb 48f 50f
5:12 6 10 mph 999.4mb 48f 51f
5:06 7 9 mph 999.4mb 48f 51f
5:00 7 9 mph 999.3mb 48f 51f
4:54 8 9 mph 999.3mb 48f 51f
4:48 7 10 mph 999.3mb 48f 51f
4:42 9 14 mph 999.3mb 48f 51f
4:36 8 11 mph 999.2mb 48f 51f
4:30 8 16 mph 999.2mb 48f 51f
4:24 13 17 mph 999.1mb 48f 51f
4:18 8 10 mph 999.1mb 48f 51f
4:12 9 13 mph 999.1mb 48f 51f
4:06 9 13 mph 999.1mb 48f 51f
4:00 7 10 mph 999mb 48f 50f
3:54 9 14 mph 999.1mb 48f 51f
3:48 8 13 mph 999mb 48f 51f
3:42 9 13 mph 998.9mb 48f 51f
3:36 8 10 mph 998.9mb 48f 50f
3:30 10 17 mph 998.8mb 48f 51f
3:24 13 17 mph 998.9mb 48f 51f
3:18 13 17 mph 998.8mb 48f 51f
3:12 10 14 mph 998.8mb 48f 51f
3:06 10 17 mph 998.8mb 48f 50f
3:00 10 14 mph 998.7mb 48f 50f
2:54 9 11 mph 998.7mb 48f 50f
2:48 8 10 mph 998.8mb 48f 49f
2:42 7 9 mph 998.9mb 48f 50f
2:36 8 10 mph 998.9mb 48f 49f
2:30 7 11 mph 999mb 48f 50f
2:24 8 14 mph 999mb 48f 50f
2:18 11 16 mph 999.2mb 48f 50f
2:12 11 14 mph 999.2mb 48f 49f
2:06 8 10 mph 999.1mb 48f 49f
2:00 8 13 mph 999mb 48f 49f
1:54 9 15 mph 998.9mb 48f 49f
1:48 10 13 mph 998.9mb 48f 49f
1:42 7 11 mph 998.9mb 48f 49f
1:36 9 13 mph 999mb 48f 49f
1:30 9 13 mph 999mb 48f 49f
1:24 7 11 mph 999mb 48f 49f
1:18 10 13 mph 999.1mb 48f 49f
1:12 8 13 mph 999.1mb 48f 49f
1:06 5 10 mph 999.2mb 48f 49f
1:00 9 11 mph 999.3mb 48f 49f
12:54 8 13 mph 999.4mb 48f 49f
12:48 11 16 mph 999.4mb 48f 49f
12:42 10 13 mph 999.5mb 48f 49f
12:36 9 10 mph 999.5mb 48f 49f
12:30 7 10 mph 999.6mb 48f 49f
12:24 8 10 mph 999.6mb 48f 49f
12:18 10 14 mph 999.7mb 48f 48f
12:12 9 14 mph 999.7mb 48f 48f
12:06 8 13 mph 999.7mb 48f 48f
12:00 10 15 mph 999.7mb 48f 48f
11:54 10 13 mph 999.8mb 48f 48f
11:48 13 15 mph 999.8mb 48f 48f
11:42 14 17 mph 999.8mb 48f 48f
11:36 14 18 mph 999.8mb 48f 48f
11:30 15 18 mph 999.9mb 48f 48f
11:24 14 18 mph 1000mb 48f 48f
11:18 11 16 mph 1000mb 48f 48f
11:12 14 16 mph 1000mb 48f 48f
11:06 11 15 mph 1000mb 48f 48f
11:00 14 20 mph 1000.1mb 48f 48f
10:54 15 16 mph 1000.2mb 48f 48f
10:48 14 18 mph 1000.2mb 48f 48f
10:42 14 20 mph 1000.3mb 48f 48f
10:36 11 16 mph 1000.3mb 48f 48f
10:30 13 15 mph 1000.5mb 48f 47f
10:24 15 18 mph 1000.5mb 48f 47f
10:18 15 16 mph 1000.5mb 48f 47f
10:12 15 18 mph 1000.5mb 48f 47f
10:06 13 15 mph 1000.6mb 48f 48f
10:00 14 18 mph 1000.6mb 48f 48f
9:54 13 16 mph 1000.6mb 48f 48f
9:48 15 17 mph 1000.7mb 48f 48f
9:42 14 17 mph 1000.8mb 48f 48f
9:36 10 16 mph 1000.9mb 48f 48f
9:30 14 16 mph 1000.8mb 48f 47f
9:24 9 13 mph 1000.8mb 48f 47f
9:18 11 14 mph 1000.9mb 48f 47f
9:12 10 17 mph 1001mb 48f 47f
9:06 14 18 mph 1001.1mb 48f 47f
9:00 14 22 mph 1001.1mb 48f 47f
8:54 14 17 mph 1001.2mb 48f 47f
8:48 14 18 mph 1001.2mb 48f 47f
8:42 14 16 mph 1001.3mb 48f 47f
8:36 10 17 mph 1001.3mb 48f 47f
8:30 16 20 mph 1001.4mb 48f 47f
8:24 17 21 mph 1001.4mb 48f 47f
8:18 16 21 mph 1001.5mb 49f 47f
8:12 21 26 mph 1001.7mb 49f 47f
8:06 17 22 mph 1001.9mb 49f 47f
8:00 16 28 mph 1002mb 49f 47f
7:54 18 25 mph 1002.2mb 49f 47f
7:48 15 18 mph 1002.3mb 49f 47f
7:42 16 21 mph 1002.4mb 49f 47f
7:36 15 22 mph 1002.5mb 49f 47f
7:30 21 29 mph 1002.4mb 49f 47f
7:24 13 17 mph 1002.5mb 49f 47f
7:18 14 21 mph 1002.5mb 49f 47f
7:12 14 21 mph 1002.4mb 49f 47f
7:06 14 18 mph 1002.3mb 49f 47f
7:00 9 24 mph 1002.5mb 49f 47f
6:54 17 24 mph 1002mb 49f 47f
6:48 22 26 mph 1001.6mb 49f 47f
6:42 24 30 mph 1001.8mb 49f 47f
6:36 17 24 mph 1002mb 49f 47f
6:30 20 29 mph 1002.3mb 49f 47f
6:24 18 23 mph 1002.7mb 49f 47f
6:18 21 29 mph 1002.9mb 49f 48f
6:12 16 23 mph 1003.1mb 49f 48f
6:06 13 17 mph 1003.2mb 49f 48f
6:00 10 21 mph 1003.3mb 49f 48f
5:54 13 21 mph 1003.3mb 49f 48f
5:48 20 24 mph 1002.9mb 49f 48f
5:42 15 24 mph 1002.8mb 49f 48f
5:36 18 24 mph 1002.7mb 49f 48f
5:30 17 21 mph 1002.9mb 49f 48f
5:24 15 21 mph 1003mb 49f 48f
5:18 18 22 mph 1002.9mb 49f 48f
5:12 14 20 mph 1003.1mb 49f 48f
5:06 16 24 mph 1003mb 49f 48f
5:00 15 20 mph 1003mb 49f 48f
4:54 16 23 mph 1003.1mb 49f 48f
4:48 16 21 mph 1003.2mb 49f 48f
4:42 16 23 mph 1003.4mb 49f 48f
4:36 16 22 mph 1003.6mb 49f 48f
4:30 17 26 mph 1003.6mb 49f 48f
4:24 18 25 mph 1003.9mb 49f 48f
4:18 18 23 mph 1003.9mb 49f 48f
4:12 15 21 mph 1004mb 49f 47f
4:06 18 22 mph 1004mb 49f 47f
4:00 20 26 mph 1004mb 49f 47f
3:54 16 23 mph 1004.1mb 49f 48f
3:48 20 28 mph 1004.4mb 49f 47f
3:42 18 22 mph 1004.5mb 49f 47f
3:36 17 22 mph 1004.8mb 49f 47f
3:30 17 22 mph 1004.8mb 49f 47f
3:24 20 23 mph 1005mb 49f 47f
3:18 20 30 mph 1005.1mb 49f 47f
3:12 16 23 mph 1005.4mb 49f 47f
3:06 18 23 mph 1005.6mb 49f 47f
3:00 17 22 mph 1005.9mb 49f 47f
2:54 14 18 mph 1006.3mb 49f 47f
2:48 15 22 mph 1006.4mb 49f 47f
2:42 17 24 mph 1006.5mb 49f 47f
2:36 15 22 mph 1006.8mb 49f 46f
2:30 17 21 mph 1007.1mb 49f 46f
2:24 20 23 mph 1007.4mb 49f 47f
2:18 16 22 mph 1007.5mb 49f 47f
2:12 16 20 mph 1007.7mb 49f 47f
2:06 16 21 mph 1007.8mb 49f 47f
2:00 16 22 mph 1007.8mb 49f 47f
1:54 17 23 mph 1007.7mb 49f 47f
1:48 16 23 mph 1007.9mb 49f 47f
1:42 15 26 mph 1007.8mb 49f 47f
1:36 18 23 mph 1007.8mb 49f 47f
1:30 18 24 mph 1007.8mb 49f 47f
1:24 21 24 mph 1007.6mb 49f 47f
1:18 18 24 mph 1007.5mb 49f 47f
1:12 20 25 mph 1007.6mb 49f 47f
1:06 21 26 mph 1007.7mb 49f 47f
1:00 21 28 mph 1007.8mb 49f 47f
12:54 21 25 mph 1008.1mb 49f 47f
12:48 21 24 mph 1008.1mb 49f 47f
12:42 21 28 mph 1008.4mb 49f 47f
12:36 22 28 mph 1008.5mb 49f 47f
12:30 22 26 mph 1008.7mb 49f 47f
12:24 20 24 mph 1009.1mb 49f 48f
12:18 21 24 mph 1009.3mb 49f 48f
12:12 18 23 mph 1009.4mb 49f 48f
12:06 18 24 mph 1009.6mb 49f 49f
12:00 18 24 mph 1009.7mb 49f 49f
Do 05/25 11:54 20 22 mph 1010mb 49f 49f
11:48 18 22 mph 1010mb 49f 49f
11:42 14 20 mph 1010.3mb 49f 49f
11:36 16 20 mph 1010.3mb 49f 49f
11:30 14 16 mph 1010.3mb 49f 49f
11:24 15 21 mph 1010.3mb 49f 49f
11:18 15 22 mph 1010.3mb 49f 49f
11:12 18 24 mph 1010.3mb 49f 49f
11:06 17 22 mph 1010.5mb 49f 49f
11:00 17 22 mph 1010.6mb 48f 49f
10:54 17 21 mph 1010.9mb 48f 49f
10:48 16 23 mph 1011mb 48f 49f
10:42 18 24 mph 1011.1mb 48f 49f
10:36 18 24 mph 1011.1mb 48f 49f
10:30 22 29 mph 1011.2mb 48f 50f
10:24 18 23 mph 1011.2mb 48f 50f
10:18 20 24 mph 1011.2mb 48f 51f
10:12 23 28 mph 1011.2mb 48f 51f
10:06 21 25 mph 1011.3mb 48f 51f
10:00 20 23 mph 1011.2mb 48f 51f
9:54 22 26 mph 1011mb 48f 52f
9:48 17 23 mph 1011mb 48f 52f
9:42 21 23 mph 1011mb 48f 53f
9:36 20 24 mph 1010.9mb 48f 53f
9:30 15 21 mph 1010.7mb 48f 53f
9:24 18 22 mph 1010.7mb 48f 53f
9:18 18 24 mph 1010.4mb 48f 53f
9:12 22 28 mph 1010.2mb 48f 53f
9:06 23 30 mph 1010.3mb 48f 53f
9:00 21 24 mph 1010.5mb 48f 53f
8:54 23 28 mph 1010.7mb 48f 53f
8:48 21 26 mph 1010.6mb 48f 53f
8:42 21 23 mph 1010.7mb 48f 53f
8:36 18 24 mph 1010.7mb 48f 53f
8:30 18 26 mph 1010.5mb 48f 52f
8:24 20 23 mph 1010.1mb 48f 52f
8:18 18 22 mph 1010mb 48f 52f
8:12 16 17 mph 1010mb 48f 52f
8:06 13 16 mph 1010.5mb 48f 52f
8:00 11 14 mph 1010.6mb 49f 52f
7:54 11 13 mph 1010.8mb 49f 52f
7:48 10 11 mph 1011.1mb 49f 51f
7:42 9 10 mph 1011.2mb 49f 51f
7:36 7 8 mph 1011.2mb 49f 51f
7:30 6 10 mph 1011.4mb 49f 51f
7:24 10 11 mph 1011.5mb 49f 51f
7:18 8 9 mph 1011.3mb 49f 50f
7:12 8 10 mph 1011.4mb 49f 51f
7:06 9 11 mph 1011.4mb 49f 51f
7:00 11 14 mph 1011.5mb 49f 51f
6:54 11 14 mph 1011.5mb 49f 51f
6:48 11 14 mph 1011.6mb 49f 52f
6:42 13 15 mph 1011.9mb 49f 52f
6:36 14 15 mph 1011.9mb 49f 52f
6:30 14 16 mph 1011.9mb 49f 52f
6:24 15 17 mph 1012.1mb 49f 53f
6:18 14 16 mph 1012.3mb 49f 53f
6:12 14 17 mph 1012.1mb 49f 53f
6:06 14 16 mph 1012.3mb 49f 53f
6:00 15 17 mph 1012.4mb 49f 53f
5:54 15 18 mph 1012.2mb 49f 53f
5:48 16 18 mph 1012.2mb 49f 53f
5:42 15 21 mph 1012.3mb 49f 53f
5:36 10 15 mph 1012.4mb 49f 52f
5:30 9 13 mph 1012.5mb 49f 52f
5:24 11 16 mph 1012.4mb 49f 52f
5:18 11 16 mph 1012.3mb 49f 53f
5:12 10 14 mph 1012.3mb 49f 53f
5:06 11 14 mph 1012.5mb 49f 53f
5:00 10 14 mph 1012.6mb 49f 54f
4:54 10 13 mph 1012.7mb 49f 54f
4:48 9 10 mph 1012.6mb 49f 54f
4:42 7 15 mph 1012.7mb 49f 54f
4:36 13 16 mph 1012.6mb 49f 55f
4:30 14 17 mph 1012.7mb 49f 55f
4:24 14 17 mph 1012.6mb 49f 55f
4:18 14 16 mph 1012.7mb 49f 55f
4:12 10 13 mph 1012.6mb 49f 55f
4:06 10 14 mph 1012.6mb 49f 55f
4:00 9 10 mph 1012.6mb 49f 54f
3:54 7 8 mph 1012.7mb 49f 55f
3:48 6 11 mph 1012.7mb 49f 55f
3:42 11 14 mph 1012.7mb 49f 54f
3:36 14 16 mph 1012.8mb 49f 54f
3:30 8 10 mph 1012.8mb 49f 54f
3:24 5 7 mph 1012.8mb 49f 55f
3:18 2 3 mph 1012.9mb 49f 56f
3:12 1 5 mph 1013mb 49f 56f
3:06 3 5 mph 1013.1mb 49f 55f
3:00 3 6 mph 1013.2mb 49f 55f
2:54 3 5 mph 1013.2mb 49f 55f
2:48 2 5 mph 1013.2mb 49f 55f
2:42 3 5 mph 1013.3mb 49f 55f
2:36 2 5 mph 1013.3mb 49f 56f
2:30 2 6 mph 1013.4mb 49f 56f
2:24 3 5 mph 1013.4mb 49f 56f
2:18 2 3 mph 1013.4mb 49f 56f
2:12 3 5 mph 1013.4mb 49f 56f
2:06 1 7 mph 1013.5mb 49f 55f
2:00 3 6 mph 1013.6mb 49f 55f
1:54 3 8 mph 1013.6mb 49f 54f
1:48 5 8 mph 1013.7mb 49f 54f
1:42 6 10 mph 1013.8mb 49f 54f
1:36 6 8 mph 1013.8mb 49f 54f
1:30 6 9 mph 1013.9mb 49f 54f
1:24 7 10 mph 1013.9mb 48f 54f
1:18 7 9 mph 1013.9mb 48f 54f
1:12 6 8 mph 1014mb 49f 54f
1:06 6 8 mph 1014.1mb 49f 54f
1:00 6 8 mph 1014.2mb 49f 54f
12:54 6 9 mph 1014.3mb 49f 54f
12:48 6 8 mph 1014.3mb 49f 54f
12:42 6 8 mph 1014.3mb 49f 54f
12:36 7 8 mph 1014.4mb 48f 54f
12:30 7 11 mph 1014.4mb 48f 54f
12:24 6 10 mph 1014.3mb 48f 54f
12:18 6 11 mph 1014.4mb 48f 54f
12:12 7 11 mph 1014.4mb 49f 54f
12:06 8 9 mph 1014.4mb 49f 54f
12:00 8 10 mph 1014.6mb 49f 54f
11:54 6 10 mph 1014.6mb 49f 53f
11:48 7 9 mph 1014.6mb 49f 54f
11:42 6 7 mph 1014.6mb 49f 54f
11:36 5 8 mph 1014.6mb 49f 54f
11:30 6 7 mph 1014.7mb 49f 54f
11:24 5 7 mph 1014.7mb 49f 54f
11:18 6 7 mph 1014.8mb 49f 53f
11:12 5 9 mph 1014.9mb 49f 53f
11:06 3 8 mph 1015mb 48f 54f
11:00 7 10 mph 1014.9mb 49f 53f
10:54 6 9 mph 1014.9mb 48f 53f
10:48 7 9 mph 1014.9mb 48f 53f
10:42 6 9 mph 1014.9mb 48f 53f
10:36 6 8 mph 1014.8mb 48f 53f
10:30 6 8 mph 1014.7mb 48f 52f
10:24 7 8 mph 1014.6mb 48f 52f
10:18 7 8 mph 1014.7mb 48f 52f
10:12 7 9 mph 1014.7mb 48f 52f
10:06 8 10 mph 1014.6mb 48f 52f
10:00 8 10 mph 1014.7mb 48f 52f
9:54 7 10 mph 1014.7mb 48f 52f
9:48 8 10 mph 1014.7mb 48f 52f
9:42 8 10 mph 1014.7mb 48f 52f
9:36 8 11 mph 1014.6mb 48f 52f
9:30 8 11 mph 1014.6mb 48f 51f
9:24 8 10 mph 1014.6mb 48f 51f
9:18 7 11 mph 1014.7mb 48f 51f
9:12 8 11 mph 1014.7mb 48f 51f
9:06 6 9 mph 1014.8mb 48f 51f
9:00 6 9 mph 1014.9mb 48f 51f
8:54 6 9 mph 1014.9mb 48f 50f
8:48 7 10 mph 1015mb 48f 50f
8:42 7 9 mph 1015.1mb 48f 50f
8:36 6 7 mph 1014.9mb 48f 50f
8:30 6 8 mph 1015mb 48f 50f
8:24 6 8 mph 1015mb 48f 50f
8:18 6 8 mph 1015mb 48f 50f
8:12 6 7 mph 1015mb 48f 50f
8:06 3 7 mph 1014.9mb 48f 51f
8:00 5 7 mph 1014.9mb 48f 50f
7:54 6 9 mph 1014.8mb 48f 50f
7:48 7 9 mph 1014.7mb 48f 50f
7:42 6 8 mph 1014.6mb 48f 50f
7:36 6 7 mph 1014.5mb 48f 49f
7:30 6 7 mph 1014.5mb 48f 49f
7:24 6 7 mph 1014.5mb 48f 49f
7:18 6 7 mph 1014.4mb 48f 49f
7:12 6 7 mph 1014.4mb 48f 49f
7:06 5 7 mph 1014.1mb 48f 49f
7:00 6 7 mph 1014.1mb 48f 49f
6:54 5 5 mph 1014.1mb 48f 48f
6:48 3 5 mph 1014mb 48f 49f
6:42 3 3 mph 1013.9mb 48f 48f
6:36 3 3 mph 1013.9mb 48f 48f
6:30 3 3 mph 1013.8mb 48f 49f
6:24 3 3 mph 1013.8mb 48f 48f
6:18 2 5 mph 1013.7mb 48f 48f
6:12 3 6 mph 1013.7mb 48f 49f
6:06 5 6 mph 1013.5mb 48f 49f
6:00 6 7 mph 1013.5mb 48f 48f
5:54 6 7 mph 1013.3mb 48f 48f
5:48 6 8 mph 1013.2mb 48f 48f
5:42 6 7 mph 1013.2mb 48f 49f
5:36 5 7 mph 1013.2mb 48f 49f
5:30 6 7 mph 1013mb 49f 48f
5:24 3 6 mph 1012.9mb 49f 48f
5:18 2 5 mph 1012.9mb 49f 49f
5:12 3 5 mph 1012.7mb 49f 49f
5:06 2 3 mph 1012.7mb 49f 49f
5:00 2 2 mph 1012.5mb 49f 48f
4:54  -  1 mph 1012.4mb 49f 48f
4:48  -  0 mph 1012.4mb 49f 48f
4:42  -  1 mph 1012.6mb 49f 48f
4:36  -  2 mph 1012.7mb 49f 48f
4:30 2 2 mph 1012.6mb 49f 48f
4:24  -  0 mph 1012.6mb 49f 48f
4:18  -  0 mph 1012.6mb 49f 48f
4:12  -  0 mph 1012.5mb 49f 48f
4:06  -  1 mph 1012.5mb 49f 48f
4:00  -  2 mph 1012.5mb 49f 48f
3:54 1 2 mph 1012.4mb 49f 48f
3:48 2 2 mph 1012.4mb 48f 48f
3:42 1 2 mph 1012.4mb 48f 48f
3:36 2 3 mph 1012.4mb 48f 48f
3:30  -  3 mph 1012.4mb 49f 48f
3:24 2 3 mph 1012.4mb 49f 48f
3:18 3 6 mph 1012.5mb 48f 48f
3:12 5 6 mph 1012.5mb 49f 48f
3:06 5 6 mph 1012.6mb 49f 48f
3:00  -  2 mph 1012.4mb 48f 49f
2:54 1 1 mph 1012.2mb 49f 49f
2:48 1 2 mph 1012.2mb 49f 49f
2:42 1 2 mph 1012.2mb 49f 48f
2:36 2 2 mph 1012.1mb 49f 49f
2:30 1 1 mph 1012.2mb 49f 48f
2:24 2 3 mph 1012.2mb 49f 48f
2:18 2 2 mph 1012.2mb 49f 48f